Time,TemperatureF,DewpointF,PressureIn,WindDirection,WindDirectionDegrees,WindSpeedMPH,WindSpeedGustMPH,Humidity,HourlyPrecipIn,Conditions,Clouds,dailyrainin,SoftwareType,DateUTC
2013-10-01 00:00:00,32.0,28.3,29.76,SSW,206,0.0,0.0,86,0.00,,,0.00,LWC V2.00 B2112,2013-10-01 08:00:00,
2013-10-01 00:05:00,31.8,28.1,29.76,SSW,206,0.0,0.0,86,0.00,,,0.00,LWC V2.00 B2112,2013-10-01 08:05:00,
2013-10-01 00:10:00,31.7,27.7,29.77,SSW,207,0.0,0.0,85,0.00,,,0.00,LWC V2.00 B2112,2013-10-01 08:10:00,
2013-10-01 00:20:00,31.6,28.2,29.77,SSW,206,0.0,0.0,87,0.00,,,0.00,LWC V2.00 B2112,2013-10-01 08:20:00,
2013-10-01 00:25:00,31.6,28.2,29.77,SSW,207,0.0,0.0,87,0.00,,,0.00,LWC V2.00 B2112,2013-10-01 08:25:00,
2013-10-01 00:30:00,31.6,27.9,29.77,SSW,206,0.0,0.0,86,0.00,,,0.00,LWC V2.00 B2112,2013-10-01 08:30:00,
2013-10-01 00:35:00,31.6,28.2,29.77,SSW,207,0.0,0.0,87,0.00,,,0.00,LWC V2.00 B2112,2013-10-01 08:35:00,
2013-10-01 00:45:00,31.7,28.3,29.77,SSW,207,0.0,0.0,87,0.00,,,0.00,LWC V2.00 B2112,2013-10-01 08:45:00,
2013-10-01 00:50:00,31.7,28.6,29.77,SSW,206,0.0,0.0,88,0.00,,,0.00,LWC V2.00 B2112,2013-10-01 08:50:00,
2013-10-01 01:00:00,31.7,28.0,29.77,SSW,207,0.0,0.0,86,0.00,,,0.00,LWC V2.00 B2112,2013-10-01 09:00:00,
2013-10-01 01:05:00,31.7,28.3,29.77,SSW,206,0.0,0.0,87,0.00,,,0.00,LWC V2.00 B2112,2013-10-01 09:05:00,
2013-10-01 01:20:00,31.5,27.8,29.77,SSW,206,0.0,0.0,86,0.00,,,0.00,LWC V2.00 B2112,2013-10-01 09:20:00,
2013-10-01 01:30:00,31.3,27.9,29.78,SSW,207,0.0,0.0,87,0.00,,,0.00,LWC V2.00 B2112,2013-10-01 09:30:00,
2013-10-01 01:40:00,31.1,27.7,29.78,SSW,206,0.0,0.0,87,0.00,,,0.00,LWC V2.00 B2112,2013-10-01 09:40:00,
2013-10-01 01:45:00,31.0,27.9,29.78,SSW,207,0.0,0.0,88,0.00,,,0.00,LWC V2.00 B2112,2013-10-01 09:45:00,
2013-10-01 01:50:00,31.0,28.1,29.78,SSW,207,0.0,0.0,89,0.00,,,0.00,LWC V2.00 B2112,2013-10-01 09:50:00,
2013-10-01 02:00:00,30.8,27.9,29.78,SSW,206,0.0,0.0,89,0.00,,,0.00,LWC V2.00 B2112,2013-10-01 10:00:00,
2013-10-01 02:10:00,30.5,27.7,29.78,SSW,207,0.0,0.0,89,0.00,,,0.00,LWC V2.00 B2112,2013-10-01 10:10:00,
2013-10-01 02:15:00,30.4,27.8,29.78,SSW,206,0.0,0.0,90,0.00,,,0.00,LWC V2.00 B2112,2013-10-01 10:15:00,
2013-10-01 02:20:00,30.5,27.9,29.78,SSW,207,0.0,0.0,90,0.00,,,0.00,LWC V2.00 B2112,2013-10-01 10:20:00,
2013-10-01 02:25:00,30.6,28.3,29.78,SSW,206,0.0,0.0,91,0.00,,,0.00,LWC V2.00 B2112,2013-10-01 10:25:00,
2013-10-01 02:30:00,30.7,28.1,29.78,SSW,207,0.0,0.0,90,0.00,,,0.00,LWC V2.00 B2112,2013-10-01 10:30:00,
2013-10-01 02:35:00,30.9,28.6,29.78,SSW,206,0.0,0.0,91,0.00,,,0.00,LWC V2.00 B2112,2013-10-01 10:35:00,
2013-10-01 02:40:00,31.0,28.7,29.78,SSW,206,0.0,0.0,91,0.00,,,0.00,LWC V2.00 B2112,2013-10-01 10:40:00,
2013-10-01 02:50:00,31.0,28.4,29.79,SSW,206,0.0,0.0,90,0.00,,,0.00,LWC V2.00 B2112,2013-10-01 10:50:00,
2013-10-01 02:55:00,31.0,28.7,29.78,SSW,206,0.0,0.0,91,0.00,,,0.00,LWC V2.00 B2112,2013-10-01 10:55:00,
2013-10-01 03:00:00,31.1,28.8,29.79,SSW,206,0.0,0.0,91,0.00,,,0.00,LWC V2.00 B2112,2013-10-01 11:00:00,
2013-10-01 03:05:00,31.2,28.9,29.78,SSW,206,0.0,0.0,91,0.00,,,0.00,LWC V2.00 B2112,2013-10-01 11:05:00,
2013-10-01 03:10:00,31.2,28.9,29.78,SSW,206,0.0,0.0,91,0.00,,,0.00,LWC V2.00 B2112,2013-10-01 11:10:00,
2013-10-01 03:15:00,31.2,28.9,29.79,SSW,207,0.0,0.0,91,0.00,,,0.00,LWC V2.00 B2112,2013-10-01 11:15:00,
2013-10-01 03:25:00,31.2,28.6,29.79,SSW,206,0.0,0.0,90,0.00,,,0.00,LWC V2.00 B2112,2013-10-01 11:25:00,
2013-10-01 03:30:00,31.3,28.7,29.78,SSW,206,0.0,0.0,90,0.00,,,0.00,LWC V2.00 B2112,2013-10-01 11:30:00,
2013-10-01 03:35:00,31.3,28.7,29.79,SSW,206,0.0,0.0,90,0.00,,,0.00,LWC V2.00 B2112,2013-10-01 11:35:00,
2013-10-01 03:40:00,31.3,28.7,29.79,SSW,206,0.0,0.0,90,0.00,,,0.00,LWC V2.00 B2112,2013-10-01 11:40:00,
2013-10-01 03:45:00,31.3,28.7,29.79,SSW,207,0.0,0.0,90,0.00,,,0.00,LWC V2.00 B2112,2013-10-01 11:45:00,
2013-10-01 03:50:00,31.2,28.6,29.79,SSW,207,0.0,0.0,90,0.00,,,0.00,LWC V2.00 B2112,2013-10-01 11:50:00,
2013-10-01 04:00:00,31.0,28.4,29.79,SSW,206,0.0,0.0,90,0.00,,,0.00,LWC V2.00 B2112,2013-10-01 12:00:00,
2013-10-01 04:05:00,30.9,28.6,29.79,SSW,207,0.0,0.0,91,0.00,,,0.00,LWC V2.00 B2112,2013-10-01 12:05:00,
2013-10-01 04:10:00,30.9,28.6,29.79,SSW,206,0.0,0.0,91,0.00,,,0.00,LWC V2.00 B2112,2013-10-01 12:10:00,
2013-10-01 04:15:00,30.8,28.5,29.79,SSW,207,0.0,0.0,91,0.00,,,0.00,LWC V2.00 B2112,2013-10-01 12:15:00,
2013-10-01 04:20:00,30.8,28.5,29.79,SSW,206,0.0,0.0,91,0.00,,,0.00,LWC V2.00 B2112,2013-10-01 12:20:00,
2013-10-01 04:30:00,30.6,28.3,29.79,SSW,207,0.0,0.0,91,0.00,,,0.00,LWC V2.00 B2112,2013-10-01 12:30:00,
2013-10-01 04:40:00,30.6,28.6,29.80,SSW,206,0.0,0.0,92,0.00,,,0.00,LWC V2.00 B2112,2013-10-01 12:40:00,
2013-10-01 04:45:00,30.6,28.6,29.80,SSW,206,0.0,0.0,92,0.00,,,0.00,LWC V2.00 B2112,2013-10-01 12:45:00,
2013-10-01 04:50:00,30.5,28.5,29.80,SSW,206,0.0,0.0,92,0.00,,,0.00,LWC V2.00 B2112,2013-10-01 12:50:00,
2013-10-01 04:55:00,30.5,28.5,29.80,SSW,206,0.0,0.0,92,0.00,,,0.00,LWC V2.00 B2112,2013-10-01 12:55:00,
2013-10-01 05:00:00,30.5,28.7,29.80,SSW,207,0.0,0.0,93,0.00,,,0.00,LWC V2.00 B2112,2013-10-01 13:00:00,
2013-10-01 05:05:00,30.4,28.6,29.80,SSW,206,0.0,0.0,93,0.00,,,0.00,LWC V2.00 B2112,2013-10-01 13:05:00,
2013-10-01 05:15:00,30.4,28.6,29.80,SSW,206,0.0,0.0,93,0.00,,,0.00,LWC V2.00 B2112,2013-10-01 13:15:00,
2013-10-01 05:20:00,30.4,28.9,29.80,SSW,206,0.0,0.0,94,0.00,,,0.00,LWC V2.00 B2112,2013-10-01 13:20:00,
2013-10-01 05:25:00,30.4,28.9,29.80,SSW,207,0.0,0.0,94,0.00,,,0.00,LWC V2.00 B2112,2013-10-01 13:25:00,
2013-10-01 05:35:00,30.4,28.9,29.80,SSW,206,0.0,0.0,94,0.00,,,0.00,LWC V2.00 B2112,2013-10-01 13:35:00,
2013-10-01 05:40:00,30.4,28.9,29.80,SSW,206,0.0,0.0,94,0.00,,,0.00,LWC V2.00 B2112,2013-10-01 13:40:00,
2013-10-01 05:45:00,30.4,28.9,29.80,SSW,206,0.0,0.0,94,0.00,,,0.00,LWC V2.00 B2112,2013-10-01 13:45:00,
2013-10-01 05:50:00,30.5,29.0,29.80,SSW,206,0.0,0.0,94,0.00,,,0.00,LWC V2.00 B2112,2013-10-01 13:50:00,
2013-10-01 05:55:00,30.5,29.0,29.80,SSW,206,0.0,0.0,94,0.00,,,0.00,LWC V2.00 B2112,2013-10-01 13:55:00,
2013-10-01 06:00:00,30.5,29.0,29.80,SSW,207,0.0,0.0,94,0.00,,,0.00,LWC V2.00 B2112,2013-10-01 14:00:00,
2013-10-01 06:05:00,30.5,29.0,29.80,SSW,206,0.0,0.0,94,0.00,,,0.00,LWC V2.00 B2112,2013-10-01 14:05:00,
2013-10-01 06:10:00,30.5,29.2,29.80,SSW,206,0.0,0.0,95,0.00,,,0.00,LWC V2.00 B2112,2013-10-01 14:10:00,
2013-10-01 06:15:00,30.6,29.3,29.80,SSW,207,0.0,0.0,95,0.00,,,0.00,LWC V2.00 B2112,2013-10-01 14:15:00,
2013-10-01 06:20:00,30.5,29.2,29.80,SSW,206,0.0,0.0,95,0.00,,,0.00,LWC V2.00 B2112,2013-10-01 14:20:00,
2013-10-01 06:25:00,30.6,29.3,29.80,SSW,206,0.0,0.0,95,0.00,,,0.00,LWC V2.00 B2112,2013-10-01 14:25:00,
2013-10-01 06:30:00,30.6,29.3,29.80,SSW,206,0.0,0.0,95,0.00,,,0.00,LWC V2.00 B2112,2013-10-01 14:30:00,
2013-10-01 06:35:00,30.5,29.2,29.80,SSW,205,0.0,0.0,95,0.00,,,0.00,LWC V2.00 B2112,2013-10-01 14:35:00,
2013-10-01 06:45:00,30.5,29.2,29.80,SSW,205,0.0,0.0,95,0.00,,,0.00,LWC V2.00 B2112,2013-10-01 14:45:00,
2013-10-01 06:50:00,30.5,29.2,29.80,SSW,205,0.0,0.0,95,0.00,,,0.00,LWC V2.00 B2112,2013-10-01 14:50:00,
2013-10-01 06:55:00,30.5,29.2,29.81,SSW,205,0.0,0.0,95,0.00,,,0.00,LWC V2.00 B2112,2013-10-01 14:55:00,
2013-10-01 07:00:00,30.5,29.2,29.81,SSW,205,0.0,0.0,95,0.00,,,0.00,LWC V2.00 B2112,2013-10-01 15:00:00,
2013-10-01 07:05:00,30.5,29.2,29.81,SSW,205,0.0,0.0,95,0.00,,,0.00,LWC V2.00 B2112,2013-10-01 15:05:00,
2013-10-01 07:10:00,30.4,29.1,29.81,SSW,205,0.0,0.0,95,0.00,,,0.00,LWC V2.00 B2112,2013-10-01 15:10:00,
2013-10-01 07:15:00,30.4,29.1,29.81,SSW,205,0.0,0.0,95,0.00,,,0.00,LWC V2.00 B2112,2013-10-01 15:15:00,
2013-10-01 07:20:00,30.3,29.0,29.81,SSW,205,0.0,0.0,95,0.00,,,0.00,LWC V2.00 B2112,2013-10-01 15:20:00,
2013-10-01 07:30:00,30.3,29.3,29.81,SSW,205,0.0,0.0,96,0.00,,,0.00,LWC V2.00 B2112,2013-10-01 15:30:00,
2013-10-01 07:35:00,30.3,29.3,29.81,SSW,205,0.0,0.0,96,0.00,,,0.00,LWC V2.00 B2112,2013-10-01 15:35:00,
2013-10-01 07:40:00,30.2,29.2,29.81,SSW,205,0.0,0.0,96,0.00,,,0.00,LWC V2.00 B2112,2013-10-01 15:40:00,
2013-10-01 07:45:00,30.2,29.2,29.81,SSW,205,0.0,0.0,96,0.00,,,0.00,LWC V2.00 B2112,2013-10-01 15:45:00,
2013-10-01 07:50:00,30.2,29.2,29.82,SSW,205,0.0,0.0,96,0.00,,,0.00,LWC V2.00 B2112,2013-10-01 15:50:00,
2013-10-01 07:55:00,30.2,29.2,29.82,SSW,205,0.0,0.0,96,0.00,,,0.00,LWC V2.00 B2112,2013-10-01 15:55:00,
2013-10-01 08:05:00,30.1,29.1,29.82,SSW,205,0.0,0.0,96,0.00,,,0.00,LWC V2.00 B2112,2013-10-01 16:05:00,
2013-10-01 08:15:00,30.1,29.1,29.82,SSW,205,0.0,0.0,96,0.00,,,0.00,LWC V2.00 B2112,2013-10-01 16:15:00,
2013-10-01 08:20:00,30.1,29.1,29.82,SSW,205,0.0,0.0,96,0.00,,,0.00,LWC V2.00 B2112,2013-10-01 16:20:00,
2013-10-01 08:30:00,30.1,29.1,29.82,SSW,205,0.0,0.0,96,0.00,,,0.00,LWC V2.00 B2112,2013-10-01 16:30:00,
2013-10-01 08:35:00,30.0,29.0,29.82,SSW,206,0.0,0.0,96,0.00,,,0.00,LWC V2.00 B2112,2013-10-01 16:35:00,
2013-10-01 08:45:00,29.9,28.9,29.82,SE,134,0.0,0.0,96,0.00,,,0.00,LWC V2.00 B2112,2013-10-01 16:45:00,
2013-10-01 08:55:00,29.8,28.8,29.82,SE,136,0.0,0.0,96,0.00,,,0.00,LWC V2.00 B2112,2013-10-01 16:55:00,
2013-10-01 09:00:00,29.8,28.8,29.82,SE,134,0.0,0.0,96,0.00,,,0.00,LWC V2.00 B2112,2013-10-01 17:00:00,
2013-10-01 09:10:00,29.9,28.9,29.82,SE,134,0.0,0.0,96,0.00,,,0.00,LWC V2.00 B2112,2013-10-01 17:10:00,
2013-10-01 09:15:00,29.8,28.8,29.82,SE,134,0.0,0.0,96,0.00,,,0.00,LWC V2.00 B2112,2013-10-01 17:15:00,
2013-10-01 09:25:00,29.9,28.9,29.82,SE,134,0.0,0.0,96,0.00,,,0.00,LWC V2.00 B2112,2013-10-01 17:25:00,
2013-10-01 09:35:00,29.9,28.9,29.82,SE,135,0.0,0.0,96,0.00,,,0.00,LWC V2.00 B2112,2013-10-01 17:35:00,
2013-10-01 09:45:00,30.0,29.0,29.83,SE,136,0.0,0.0,96,0.00,,,0.00,LWC V2.00 B2112,2013-10-01 17:45:00,
2013-10-01 09:55:00,30.2,29.5,29.83,SE,135,0.0,0.0,97,0.00,,,0.00,LWC V2.00 B2112,2013-10-01 17:55:00,
2013-10-01 10:00:00,30.2,29.2,29.83,SE,134,0.0,0.0,96,0.00,,,0.00,LWC V2.00 B2112,2013-10-01 18:00:00,
2013-10-01 10:05:00,30.3,29.3,29.83,SE,137,0.0,0.0,96,0.00,,,0.00,LWC V2.00 B2112,2013-10-01 18:05:00,
2013-10-01 10:15:00,30.3,29.3,29.83,SE,136,0.0,0.0,96,0.00,,,0.00,LWC V2.00 B2112,2013-10-01 18:15:00,
2013-10-01 10:20:00,30.4,29.4,29.83,SE,136,0.0,0.0,96,0.00,,,0.00,LWC V2.00 B2112,2013-10-01 18:20:00,
2013-10-01 10:25:00,30.5,29.5,29.83,SE,136,0.0,0.0,96,0.00,,,0.00,LWC V2.00 B2112,2013-10-01 18:25:00,
2013-10-01 10:30:00,30.5,29.5,29.83,SE,136,0.0,0.0,96,0.00,,,0.00,LWC V2.00 B2112,2013-10-01 18:30:00,
2013-10-01 10:35:00,30.6,29.6,29.83,SSE,156,0.0,0.0,96,0.00,,,0.00,LWC V2.00 B2112,2013-10-01 18:35:00,
2013-10-01 10:40:00,30.7,29.7,29.83,SSE,156,0.0,0.0,96,0.00,,,0.00,LWC V2.00 B2112,2013-10-01 18:40:00,
2013-10-01 10:45:00,30.7,29.7,29.83,ESE,123,0.0,0.0,96,0.00,,,0.00,LWC V2.00 B2112,2013-10-01 18:45:00,
2013-10-01 10:55:00,30.8,29.8,29.83,SE,125,0.0,0.0,96,0.00,,,0.00,LWC V2.00 B2112,2013-10-01 18:55:00,
2013-10-01 11:00:00,30.7,29.4,29.83,SE,125,0.0,0.0,95,0.00,,,0.00,LWC V2.00 B2112,2013-10-01 19:00:00,
2013-10-01 11:10:00,31.0,30.0,29.84,SE,125,0.0,0.0,96,0.00,,,0.00,LWC V2.00 B2112,2013-10-01 19:10:00,
2013-10-01 11:15:00,31.1,30.1,29.83,SE,125,0.0,0.0,96,0.00,,,0.00,LWC V2.00 B2112,2013-10-01 19:15:00,
2013-10-01 11:20:00,31.1,30.1,29.84,SE,126,0.0,0.0,96,0.00,,,0.00,LWC V2.00 B2112,2013-10-01 19:20:00,
2013-10-01 11:25:00,31.2,29.9,29.84,SE,125,0.0,0.0,95,0.00,,,0.00,LWC V2.00 B2112,2013-10-01 19:25:00,
2013-10-01 11:30:00,31.2,29.9,29.84,SE,125,0.0,0.0,95,0.00,,,0.00,LWC V2.00 B2112,2013-10-01 19:30:00,
2013-10-01 11:35:00,31.2,29.9,29.84,SE,126,0.0,0.0,95,0.00,,,0.00,LWC V2.00 B2112,2013-10-01 19:35:00,
2013-10-01 11:40:00,31.3,30.0,29.84,SE,127,0.0,0.0,95,0.00,,,0.00,LWC V2.00 B2112,2013-10-01 19:40:00,
2013-10-01 11:45:00,31.2,29.9,29.84,SSE,166,0.0,0.0,95,0.00,,,0.00,LWC V2.00 B2112,2013-10-01 19:45:00,
2013-10-01 11:50:00,31.3,30.0,29.84,SSE,165,0.0,0.0,95,0.00,,,0.00,LWC V2.00 B2112,2013-10-01 19:50:00,
2013-10-01 11:55:00,31.4,30.4,29.84,SSE,165,0.0,0.0,96,0.00,,,0.00,LWC V2.00 B2112,2013-10-01 19:55:00,
2013-10-01 12:00:00,31.6,30.6,29.84,SSE,165,0.0,0.0,96,0.00,,,0.00,LWC V2.00 B2112,2013-10-01 20:00:00,
2013-10-01 12:05:00,31.6,30.3,29.84,SSE,163,0.0,0.0,95,0.00,,,0.00,LWC V2.00 B2112,2013-10-01 20:05:00,
2013-10-01 12:15:00,31.8,30.5,29.85,SSE,163,0.0,0.0,95,0.00,,,0.00,LWC V2.00 B2112,2013-10-01 20:15:00,
2013-10-01 12:25:00,32.1,30.8,29.85,ESE,110,0.0,0.0,95,0.00,,,0.00,LWC V2.00 B2112,2013-10-01 20:25:00,
2013-10-01 12:30:00,32.2,30.9,29.85,ESE,111,0.0,0.0,95,0.00,,,0.00,LWC V2.00 B2112,2013-10-01 20:30:00,
2013-10-01 12:40:00,32.5,31.0,29.85,ESE,110,0.0,0.0,94,0.00,,,0.00,LWC V2.00 B2112,2013-10-01 20:40:00,
2013-10-01 13:00:00,32.9,31.1,29.85,ESE,113,0.0,0.0,93,0.00,,,0.00,LWC V2.00 B2112,2013-10-01 21:00:00,
2013-10-01 13:05:00,32.9,30.8,29.85,ESE,113,0.0,0.0,92,0.00,,,0.00,LWC V2.00 B2112,2013-10-01 21:05:00,
2013-10-01 13:10:00,32.8,31.0,29.85,ESE,106,0.0,0.0,93,0.00,,,0.00,LWC V2.00 B2112,2013-10-01 21:10:00,
2013-10-01 13:15:00,32.9,31.1,29.85,ESE,106,0.0,0.0,93,0.00,,,0.00,LWC V2.00 B2112,2013-10-01 21:15:00,
2013-10-01 13:20:00,33.0,31.5,29.86,ESE,106,0.0,0.0,94,0.00,,,0.00,LWC V2.00 B2112,2013-10-01 21:20:00,
2013-10-01 13:25:00,33.1,31.3,29.85,ESE,106,0.0,0.0,93,0.00,,,0.00,LWC V2.00 B2112,2013-10-01 21:25:00,
2013-10-01 13:35:00,33.2,31.4,29.85,SSE,153,0.0,0.0,93,0.00,,,0.00,LWC V2.00 B2112,2013-10-01 21:35:00,
2013-10-01 13:40:00,33.4,31.6,29.86,ESE,103,0.0,0.0,93,0.00,,,0.00,LWC V2.00 B2112,2013-10-01 21:40:00,
2013-10-01 13:50:00,33.7,31.9,29.86,ESE,116,0.0,1.0,93,0.00,,,0.00,LWC V2.00 B2112,2013-10-01 21:50:00,
2013-10-01 13:55:00,33.9,31.8,29.86,ESE,116,0.0,0.0,92,0.00,,,0.00,LWC V2.00 B2112,2013-10-01 21:55:00,
2013-10-01 14:00:00,34.0,31.9,29.86,WNW,302,0.0,0.0,92,0.00,,,0.00,LWC V2.00 B2112,2013-10-01 22:00:00,
2013-10-01 14:05:00,33.9,31.6,29.85,NNW,333,0.0,0.0,91,0.00,,,0.00,LWC V2.00 B2112,2013-10-01 22:05:00,
2013-10-01 14:10:00,34.1,32.0,29.85,NNW,333,0.0,0.0,92,0.00,,,0.00,LWC V2.00 B2112,2013-10-01 22:10:00,
2013-10-01 14:15:00,34.1,31.8,29.85,NW,308,0.0,0.0,91,0.00,,,0.00,LWC V2.00 B2112,2013-10-01 22:15:00,
2013-10-01 14:25:00,34.3,32.0,29.85,South,188,0.0,1.0,91,0.00,,,0.00,LWC V2.00 B2112,2013-10-01 22:25:00,
2013-10-01 14:30:00,34.7,32.3,29.85,SE,145,0.0,1.0,91,0.00,,,0.00,LWC V2.00 B2112,2013-10-01 22:30:00,
2013-10-01 14:35:00,34.9,32.5,29.85,SE,146,0.0,0.0,91,0.00,,,0.00,LWC V2.00 B2112,2013-10-01 22:35:00,
2013-10-01 14:45:00,34.9,32.0,29.85,SE,125,0.0,0.0,89,0.00,,,0.00,LWC V2.00 B2112,2013-10-01 22:45:00,
2013-10-01 14:50:00,34.9,32.0,29.85,SSW,194,0.0,0.0,89,0.00,,,0.00,LWC V2.00 B2112,2013-10-01 22:50:00,
2013-10-01 14:55:00,35.0,32.4,29.85,WNW,292,0.0,0.0,90,0.00,,,0.00,LWC V2.00 B2112,2013-10-01 22:55:00,
2013-10-01 15:00:00,35.1,32.5,29.85,SE,142,0.0,0.0,90,0.00,,,0.00,LWC V2.00 B2112,2013-10-01 23:00:00,
2013-10-01 15:05:00,35.3,32.4,29.85,SE,125,0.0,1.0,89,0.00,,,0.00,LWC V2.00 B2112,2013-10-01 23:05:00,
2013-10-01 15:10:00,35.2,32.3,29.85,ESE,107,1.0,2.0,89,0.00,,,0.00,LWC V2.00 B2112,2013-10-01 23:10:00,
2013-10-01 15:15:00,35.2,32.3,29.85,SE,132,0.0,0.0,89,0.00,,,0.00,LWC V2.00 B2112,2013-10-01 23:15:00,
2013-10-01 15:20:00,35.3,32.4,29.85,SSE,167,0.0,1.0,89,0.00,,,0.00,LWC V2.00 B2112,2013-10-01 23:20:00,
2013-10-01 15:25:00,35.4,32.5,29.85,ESE,113,0.0,1.0,89,0.00,,,0.00,LWC V2.00 B2112,2013-10-01 23:25:00,
2013-10-01 15:30:00,35.6,32.7,29.85,SE,142,1.0,1.0,89,0.00,,,0.00,LWC V2.00 B2112,2013-10-01 23:30:00,
2013-10-01 15:35:00,35.6,32.7,29.85,SE,138,0.0,0.0,89,0.00,,,0.00,LWC V2.00 B2112,2013-10-01 23:35:00,
2013-10-01 15:40:00,35.7,32.5,29.85,SE,131,0.0,0.0,88,0.00,,,0.00,LWC V2.00 B2112,2013-10-01 23:40:00,
2013-10-01 15:45:00,35.6,32.4,29.85,SSW,212,0.0,0.0,88,0.00,,,0.00,LWC V2.00 B2112,2013-10-01 23:45:00,
2013-10-01 15:50:00,35.8,32.6,29.85,SSE,154,0.0,0.0,88,0.00,,,0.00,LWC V2.00 B2112,2013-10-01 23:50:00,
2013-10-01 15:55:00,35.8,32.6,29.85,SSE,149,0.0,0.0,88,0.00,,,0.00,LWC V2.00 B2112,2013-10-01 23:55:00,
2013-10-01 16:00:00,35.9,32.4,29.85,SSE,149,0.0,0.0,87,0.00,,,0.00,LWC V2.00 B2112,2013-10-02 00:00:00,
2013-10-01 16:05:00,35.5,31.7,29.85,ESE,123,0.0,1.0,86,0.00,,,0.00,LWC V2.00 B2112,2013-10-02 00:05:00,
2013-10-01 16:10:00,35.5,32.0,29.85,ESE,122,0.0,0.0,87,0.00,,,0.00,LWC V2.00 B2112,2013-10-02 00:10:00,
2013-10-01 16:15:00,35.6,32.1,29.85,ESE,122,0.0,0.0,87,0.00,,,0.00,LWC V2.00 B2112,2013-10-02 00:15:00,
2013-10-01 16:20:00,35.6,32.1,29.85,ESE,123,0.0,0.0,87,0.00,,,0.00,LWC V2.00 B2112,2013-10-02 00:20:00,
2013-10-01 16:25:00,35.7,31.9,29.85,ESE,123,0.0,0.0,86,0.00,,,0.00,LWC V2.00 B2112,2013-10-02 00:25:00,
2013-10-01 16:30:00,35.8,32.0,29.85,ESE,123,0.0,0.0,86,0.00,,,0.00,LWC V2.00 B2112,2013-10-02 00:30:00,
2013-10-01 16:35:00,35.8,31.7,29.85,ESE,123,0.0,0.0,85,0.00,,,0.00,LWC V2.00 B2112,2013-10-02 00:35:00,
2013-10-01 16:40:00,35.7,31.9,29.85,ESE,123,0.0,0.0,86,0.00,,,0.00,LWC V2.00 B2112,2013-10-02 00:40:00,
2013-10-01 16:45:00,35.8,32.0,29.84,SE,128,0.0,0.0,86,0.00,,,0.00,LWC V2.00 B2112,2013-10-02 00:45:00,
2013-10-01 16:50:00,35.9,32.1,29.84,SE,128,0.0,0.0,86,0.00,,,0.00,LWC V2.00 B2112,2013-10-02 00:50:00,
2013-10-01 16:55:00,35.9,32.1,29.84,SE,128,0.0,0.0,86,0.00,,,0.00,LWC V2.00 B2112,2013-10-02 00:55:00,
2013-10-01 17:00:00,35.8,31.7,29.84,SE,128,0.0,0.0,85,0.00,,,0.00,LWC V2.00 B2112,2013-10-02 01:00:00,
2013-10-01 17:05:00,35.8,32.0,29.84,SE,128,0.0,0.0,86,0.00,,,0.00,LWC V2.00 B2112,2013-10-02 01:05:00,
2013-10-01 17:10:00,35.7,31.9,29.84,SE,127,0.0,0.0,86,0.00,,,0.00,LWC V2.00 B2112,2013-10-02 01:10:00,
2013-10-01 17:15:00,35.7,31.6,29.85,SE,126,0.0,0.0,85,0.00,,,0.00,LWC V2.00 B2112,2013-10-02 01:15:00,
2013-10-01 17:20:00,35.7,31.9,29.84,SE,127,0.0,0.0,86,0.00,,,0.00,LWC V2.00 B2112,2013-10-02 01:20:00,
2013-10-01 17:25:00,35.7,31.9,29.85,SE,126,0.0,0.0,86,0.00,,,0.00,LWC V2.00 B2112,2013-10-02 01:25:00,
2013-10-01 17:30:00,35.7,31.9,29.84,SE,127,0.0,0.0,86,0.00,,,0.00,LWC V2.00 B2112,2013-10-02 01:30:00,
2013-10-01 17:35:00,35.8,32.0,29.84,SE,126,0.0,0.0,86,0.00,,,0.00,LWC V2.00 B2112,2013-10-02 01:35:00,
2013-10-01 17:40:00,35.8,31.7,29.85,SE,126,0.0,0.0,85,0.00,,,0.00,LWC V2.00 B2112,2013-10-02 01:40:00,
2013-10-01 17:45:00,35.8,32.0,29.85,SE,126,0.0,0.0,86,0.00,,,0.00,LWC V2.00 B2112,2013-10-02 01:45:00,
2013-10-01 17:50:00,35.8,32.0,29.85,SE,127,0.0,0.0,86,0.00,,,0.00,LWC V2.00 B2112,2013-10-02 01:50:00,
2013-10-01 17:55:00,35.9,32.1,29.85,SE,126,0.0,0.0,86,0.00,,,0.00,LWC V2.00 B2112,2013-10-02 01:55:00,
2013-10-01 18:00:00,35.9,31.8,29.85,SE,127,0.0,0.0,85,0.00,,,0.00,LWC V2.00 B2112,2013-10-02 02:00:00,
2013-10-01 18:05:00,35.9,31.8,29.85,SE,126,0.0,0.0,85,0.00,,,0.00,LWC V2.00 B2112,2013-10-02 02:05:00,
2013-10-01 18:10:00,35.9,32.1,29.85,SE,126,0.0,0.0,86,0.00,,,0.00,LWC V2.00 B2112,2013-10-02 02:10:00,
2013-10-01 18:15:00,35.9,32.1,29.85,SE,127,0.0,0.0,86,0.00,,,0.00,LWC V2.00 B2112,2013-10-02 02:15:00,
2013-10-01 18:20:00,35.9,32.1,29.85,SE,126,0.0,0.0,86,0.00,,,0.00,LWC V2.00 B2112,2013-10-02 02:20:00,
2013-10-01 18:25:00,35.8,32.0,29.85,SE,127,0.0,0.0,86,0.00,,,0.00,LWC V2.00 B2112,2013-10-02 02:25:00,
2013-10-01 18:30:00,35.7,31.6,29.85,SE,127,0.0,0.0,85,0.00,,,0.00,LWC V2.00 B2112,2013-10-02 02:30:00,
2013-10-01 18:35:00,35.6,31.5,29.85,SE,126,0.0,0.0,85,0.00,,,0.00,LWC V2.00 B2112,2013-10-02 02:35:00,
2013-10-01 18:40:00,35.6,31.8,29.85,SE,126,0.0,0.0,86,0.00,,,0.00,LWC V2.00 B2112,2013-10-02 02:40:00,
2013-10-01 18:45:00,35.5,31.7,29.84,SE,127,0.0,0.0,86,0.00,,,0.00,LWC V2.00 B2112,2013-10-02 02:45:00,
2013-10-01 18:50:00,35.5,32.0,29.85,SE,127,0.0,0.0,87,0.00,,,0.00,LWC V2.00 B2112,2013-10-02 02:50:00,
2013-10-01 18:55:00,35.4,31.9,29.85,SE,126,0.0,0.0,87,0.00,,,0.00,LWC V2.00 B2112,2013-10-02 02:55:00,
2013-10-01 19:00:00,35.3,32.1,29.85,SE,126,0.0,0.0,88,0.00,,,0.00,LWC V2.00 B2112,2013-10-02 03:00:00,
2013-10-01 19:05:00,35.1,31.6,29.84,SE,127,0.0,0.0,87,0.00,,,0.00,LWC V2.00 B2112,2013-10-02 03:05:00,
2013-10-01 19:10:00,35.1,31.9,29.84,SE,126,0.0,0.0,88,0.00,,,0.00,LWC V2.00 B2112,2013-10-02 03:10:00,
2013-10-01 19:15:00,34.9,31.7,29.84,SE,127,0.0,0.0,88,0.00,,,0.00,LWC V2.00 B2112,2013-10-02 03:15:00,
2013-10-01 19:20:00,34.8,31.6,29.84,SE,126,0.0,0.0,88,0.00,,,0.00,LWC V2.00 B2112,2013-10-02 03:20:00,
2013-10-01 19:25:00,34.7,31.8,29.85,SE,127,0.0,0.0,89,0.00,,,0.00,LWC V2.00 B2112,2013-10-02 03:25:00,
2013-10-01 19:30:00,34.5,31.6,29.85,SE,127,0.0,0.0,89,0.00,,,0.00,LWC V2.00 B2112,2013-10-02 03:30:00,
2013-10-01 19:35:00,34.4,31.8,29.85,SE,127,0.0,0.0,90,0.00,,,0.00,LWC V2.00 B2112,2013-10-02 03:35:00,
2013-10-01 19:40:00,34.3,31.7,29.85,SE,127,0.0,0.0,90,0.00,,,0.00,LWC V2.00 B2112,2013-10-02 03:40:00,
2013-10-01 19:45:00,34.3,31.7,29.85,SE,127,0.0,0.0,90,0.00,,,0.00,LWC V2.00 B2112,2013-10-02 03:45:00,
2013-10-01 19:50:00,34.1,31.5,29.85,SE,126,0.0,0.0,90,0.00,,,0.00,LWC V2.00 B2112,2013-10-02 03:50:00,
2013-10-01 19:55:00,34.0,31.7,29.85,SE,126,0.0,0.0,91,0.00,,,0.00,LWC V2.00 B2112,2013-10-02 03:55:00,
2013-10-01 20:00:00,34.0,31.7,29.85,SE,127,0.0,0.0,91,0.00,,,0.00,LWC V2.00 B2112,2013-10-02 04:00:00,
2013-10-01 20:05:00,33.9,31.6,29.85,SE,127,0.0,0.0,91,0.00,,,0.00,LWC V2.00 B2112,2013-10-02 04:05:00,
2013-10-01 20:10:00,33.9,31.6,29.85,SE,127,0.0,0.0,91,0.00,,,0.00,LWC V2.00 B2112,2013-10-02 04:10:00,
2013-10-01 20:15:00,33.8,31.5,29.85,SE,127,0.0,0.0,91,0.00,,,0.00,LWC V2.00 B2112,2013-10-02 04:15:00,
2013-10-01 20:20:00,33.7,31.4,29.85,SE,126,0.0,0.0,91,0.00,,,0.00,LWC V2.00 B2112,2013-10-02 04:20:00,
2013-10-01 20:25:00,33.7,31.4,29.85,SE,127,0.0,0.0,91,0.00,,,0.00,LWC V2.00 B2112,2013-10-02 04:25:00,
2013-10-01 20:30:00,33.5,31.4,29.85,SE,127,0.0,0.0,92,0.00,,,0.00,LWC V2.00 B2112,2013-10-02 04:30:00,
2013-10-01 20:35:00,33.5,31.4,29.85,SE,126,0.0,0.0,92,0.00,,,0.00,LWC V2.00 B2112,2013-10-02 04:35:00,
2013-10-01 20:40:00,33.5,31.4,29.85,SE,126,0.0,0.0,92,0.00,,,0.00,LWC V2.00 B2112,2013-10-02 04:40:00,
2013-10-01 20:45:00,33.4,31.3,29.85,SE,126,0.0,0.0,92,0.00,,,0.00,LWC V2.00 B2112,2013-10-02 04:45:00,
2013-10-01 20:50:00,33.3,31.2,29.85,SE,126,0.0,0.0,92,0.00,,,0.00,LWC V2.00 B2112,2013-10-02 04:50:00,
2013-10-01 20:55:00,33.3,31.2,29.85,SE,126,0.0,0.0,92,0.00,,,0.00,LWC V2.00 B2112,2013-10-02 04:55:00,
2013-10-01 21:00:00,33.2,31.1,29.85,SE,127,0.0,0.0,92,0.00,,,0.00,LWC V2.00 B2112,2013-10-02 05:00:00,
2013-10-01 21:05:00,33.2,31.1,29.85,SE,126,0.0,0.0,92,0.00,,,0.00,LWC V2.00 B2112,2013-10-02 05:05:00,
2013-10-01 21:10:00,33.1,31.0,29.85,SE,126,0.0,0.0,92,0.00,,,0.00,LWC V2.00 B2112,2013-10-02 05:10:00,
2013-10-01 21:15:00,33.0,30.9,29.85,SE,127,0.0,0.0,92,0.00,,,0.00,LWC V2.00 B2112,2013-10-02 05:15:00,
2013-10-01 21:20:00,32.9,31.1,29.85,SE,127,0.0,0.0,93,0.00,,,0.00,LWC V2.00 B2112,2013-10-02 05:20:00,
2013-10-01 21:25:00,32.8,31.0,29.85,SE,127,0.0,0.0,93,0.00,,,0.00,LWC V2.00 B2112,2013-10-02 05:25:00,
2013-10-01 21:30:00,32.8,31.0,29.85,SE,126,0.0,0.0,93,0.00,,,0.00,LWC V2.00 B2112,2013-10-02 05:30:00,
2013-10-01 21:35:00,32.8,31.0,29.85,SE,127,0.0,0.0,93,0.00,,,0.00,LWC V2.00 B2112,2013-10-02 05:35:00,
2013-10-01 21:40:00,32.8,31.0,29.85,SE,127,0.0,0.0,93,0.00,,,0.00,LWC V2.00 B2112,2013-10-02 05:40:00,
2013-10-01 21:45:00,32.8,31.0,29.85,SE,126,0.0,0.0,93,0.00,,,0.00,LWC V2.00 B2112,2013-10-02 05:45:00,
2013-10-01 21:50:00,32.8,31.0,29.85,SE,127,0.0,0.0,93,0.00,,,0.00,LWC V2.00 B2112,2013-10-02 05:50:00,
2013-10-01 21:55:00,32.9,31.1,29.85,SE,127,0.0,0.0,93,0.00,,,0.00,LWC V2.00 B2112,2013-10-02 05:55:00,
2013-10-01 22:00:00,32.8,31.0,29.85,SE,126,0.0,0.0,93,0.00,,,0.00,LWC V2.00 B2112,2013-10-02 06:00:00,
2013-10-01 22:05:00,32.8,31.0,29.85,SE,127,0.0,0.0,93,0.00,,,0.00,LWC V2.00 B2112,2013-10-02 06:05:00,
2013-10-01 22:10:00,32.8,31.0,29.85,SE,126,0.0,0.0,93,0.00,,,0.00,LWC V2.00 B2112,2013-10-02 06:10:00,
2013-10-01 22:15:00,32.9,31.1,29.85,SE,127,0.0,0.0,93,0.00,,,0.00,LWC V2.00 B2112,2013-10-02 06:15:00,
2013-10-01 22:20:00,32.9,31.1,29.85,SE,127,0.0,0.0,93,0.00,,,0.00,LWC V2.00 B2112,2013-10-02 06:20:00,
2013-10-01 22:25:00,33.0,31.2,29.85,SE,127,0.0,0.0,93,0.00,,,0.00,LWC V2.00 B2112,2013-10-02 06:25:00,
2013-10-01 22:30:00,33.0,31.2,29.85,SE,126,0.0,0.0,93,0.00,,,0.00,LWC V2.00 B2112,2013-10-02 06:30:00,
2013-10-01 22:35:00,33.0,30.9,29.85,SE,126,0.0,0.0,92,0.00,,,0.00,LWC V2.00 B2112,2013-10-02 06:35:00,
2013-10-01 22:40:00,32.9,31.1,29.85,SE,126,0.0,0.0,93,0.00,,,0.00,LWC V2.00 B2112,2013-10-02 06:40:00,
2013-10-01 22:45:00,32.9,31.1,29.85,SE,126,0.0,0.0,93,0.00,,,0.00,LWC V2.00 B2112,2013-10-02 06:45:00,
2013-10-01 22:50:00,32.9,31.1,29.85,SE,127,0.0,0.0,93,0.00,,,0.00,LWC V2.00 B2112,2013-10-02 06:50:00,
2013-10-01 22:55:00,32.8,31.0,29.85,SE,127,0.0,0.0,93,0.00,,,0.00,LWC V2.00 B2112,2013-10-02 06:55:00,
2013-10-01 23:00:00,32.8,31.0,29.85,SE,127,0.0,0.0,93,0.00,,,0.00,LWC V2.00 B2112,2013-10-02 07:00:00,
2013-10-01 23:05:00,32.7,30.9,29.85,SE,126,0.0,0.0,93,0.00,,,0.00,LWC V2.00 B2112,2013-10-02 07:05:00,
2013-10-01 23:10:00,32.7,30.9,29.85,SE,127,0.0,0.0,93,0.00,,,0.00,LWC V2.00 B2112,2013-10-02 07:10:00,
2013-10-01 23:15:00,32.6,30.8,29.85,SE,127,0.0,0.0,93,0.00,,,0.00,LWC V2.00 B2112,2013-10-02 07:15:00,
2013-10-01 23:20:00,32.6,30.8,29.85,SE,127,0.0,0.0,93,0.00,,,0.00,LWC V2.00 B2112,2013-10-02 07:20:00,
2013-10-01 23:25:00,32.6,30.8,29.85,SE,126,0.0,0.0,93,0.00,,,0.00,LWC V2.00 B2112,2013-10-02 07:25:00,
2013-10-01 23:30:00,32.6,30.8,29.85,SE,127,0.0,0.0,93,0.00,,,0.00,LWC V2.00 B2112,2013-10-02 07:30:00,
2013-10-01 23:35:00,32.7,31.2,29.85,SE,127,0.0,0.0,94,0.00,,,0.00,LWC V2.00 B2112,2013-10-02 07:35:00,
2013-10-01 23:40:00,32.7,31.2,29.85,SE,127,0.0,0.0,94,0.00,,,0.00,LWC V2.00 B2112,2013-10-02 07:40:00,
2013-10-01 23:45:00,32.6,30.8,29.85,SE,127,0.0,0.0,93,0.00,,,0.00,LWC V2.00 B2112,2013-10-02 07:45:00,
2013-10-01 23:50:00,32.6,30.8,29.85,SE,126,0.0,0.0,93,0.00,,,0.00,LWC V2.00 B2112,2013-10-02 07:50:00,
2013-10-01 23:55:00,32.6,30.8,29.85,SE,127,0.0,0.0,93,0.00,,,0.00,LWC V2.00 B2112,2013-10-02 07:55:00,